Regional Weather Roundup
Issued by NWS State College, PA

Home | Current Version | Previous Version | Graphics & Text | Print | Product List | Glossary On
Versions: 1 2 3 4 5 6 7 8 9 10 11 12 13 14 15 16 17 18 19 20 21 22 23 24 25 26 27 28 29 30 31 32 33 34 35 36 37 38 39 40 41 42 43 44 45 46 47 48 49 50
000
ASUS41 KCTP 211610
RWRCTP
REGIONAL WEATHER ROUNDUP
NATIONAL WEATHER SERVICE STATE COLLEGE PA
1200 PM EDT THU SEP 21 2017

Note: "fair" indicates few or no clouds below 12,000 feet with no
significant weather and/or obstructions to visibility.

* = STATION THAT DOES NOT REPORT PRECIPITATION /E.G. RAIN...SNOW...ETC/
    THUNDER OR FOG.

PAZ002>004-007>009-013>016-020>023-029>032-211700-
WESTERN PENNSYLVANIA

CITY           SKY/WX    TMP DP  RH WIND       PRES   REMARKS
ERIE           SUNNY     78  62  57 N7        30.12S
MEADVILLE      SUNNY     81  62  52 CALM      30.14F
FRANKLIN*      SUNNY     79  64  61 NE5       30.16S
NEW CASTLE     FAIR      80  65  59 NE3       30.14S
BEAVER COUNTY  SUNNY     81  64  57 CALM      30.14F
BUTLER*        SUNNY     79  66  64 CALM      30.15S
PITTSBURGH INT MOSUNNY   80  65  59 S3        30.13S
PITTSBURGH     SUNNY     78  64  61 CALM      30.13F
INDIANA*       SUNNY     77  66  69 N5        30.17S
LATROBE        MOSUNNY   77  64  65 CALM      30.15S
WASHINGTON CO* SUNNY     79  66  65 E6        30.14F
$$

PAZ004>006-010>012-017>019-024>028-033>037-041-042-045-046-049>053-211700-
CENTRAL PENNSYLVANIA

CITY           SKY/WX    TMP DP  RH WIND       PRES   REMARKS
BRADFORD       SUNNY     75  55  49 E5        30.17S
DUBOIS         SUNNY     76  59  55 N6        30.16S
CLEARFIELD     SUNNY     77  62  59 CALM      30.15S
JOHNSTOWN      MOSUNNY   76  60  57 VRB5      30.18R
ALTOONA        SUNNY     76  63  64 CALM      30.14F
STATE COLLEGE  SUNNY     73  63  68 CALM      30.13S
WILLIAMSPORT   SUNNY    N/A N/A N/A VRB5      30.07F
SELINSGROVE    SUNNY     79  67  66 CALM      30.09F
FT INDIANTOWN  PTSUNNY   80  65  60 CALM      30.07F
CAPITAL CITY   SUNNY     82  63  52 N3        30.07F
HARRISBURG     MOSUNNY   80  66  62 W7        30.06F
YORK           SUNNY     79  67  66 VRB3      30.07F
$$

PAZ038>040-043-044-047-048-054-055-060>062-067>071-211700-
EASTERN PENNSYLVANIA

CITY           SKY/WX    TMP DP  RH WIND       PRES   REMARKS
SCRANTON       SUNNY     75  64  68 CALM      30.10F
MOUNT POCONO   SUNNY     76  57  51 NE14      30.12S
ALLENTOWN      SUNNY     83  64  52 E6        30.05F
QUAKERTOWN*    SUNNY     81  64  57 E6        30.07S
READING        MOSUNNY   83  68  60 NW5       30.05S
LANCASTER      SUNNY     81  67  62 VRB3      30.06F
COATESVILLE    SUNNY     79  64  61 N6        30.08S
POTTSTOWN      NOT AVBL
BLUE BELL      SUNNY     79  63  57 NE7       30.05S
DOYLESTOWN     MOSUNNY   83  65  54 N7        30.04F
WILLOW GROVE   NOT AVBL
NORTH PHILA    SUNNY     84  65  52 NE16      30.04F
PHILADELPHIA   MOSUNNY   84  63  49 N8        30.03S
$$




USA.gov is the U.S. government's official web portal to all federal, state and local government web resources and services.